Regional Weather Roundup
Issued by NWS

Home | Current Version | Previous Version | Graphics & Text | Print | Product List | Glossary Off
Versions: 1 2 3 4 5 6 7 8 9 10 11 12 13 14 15 16 17 18 19 20 21 22 23 24 25 26 27 28 29 30 31 32 33 34 35 36 37 38

000
ASUS43 KDMX 230107
RWRIA

WEATHER ROUNDUP FOR IOWA
NATIONAL WEATHER SERVICE DES MOINES IA
800 PM CDT WED OCT 22 2014

NOTE: "FAIR" INDICATES FEW OR NO CLOUDS BELOW 12,000 FEET WITH NO
SIGNIFICANT WEATHER AND/OR OBSTRUCTIONS TO VISIBILITY.

* - THESE STATIONS ARE NOT NWS STATIONS...THUS NOT UNDER NWS
QUALITY CONTROL.  THEY ALSO DO NOT REPORT WEATHER SUCH
AS PRECIPITATION OR FOG.

IAZ001>003-012>014-020>022-031>034-043>046-230200-
   NORTHWEST IOWA

CITY           SKY/WX    TMP DP  RH WIND       PRES   REMARKS
CARROLL *      MOCLDY    61  48  63 SE13      30.05R
CHEROKEE *     HVY RAIN  59  59 100 S6        30.06R
DENISON *      CLOUDY    64  52  63 SW8G26    30.05R
LE MARS *      RAIN      59  59 100 S7        30.03R
ORANGE CITY *  RAIN      61  57  88 S6        30.03R
SHELDON *      LGT RAIN  59  59 100 S10       30.02R
SIOUX CITY     CLOUDY    60  58  92 S5        30.03R
SPENCER        CLOUDY    62  50  64 S16       30.05R
STORM LAKE *   CLOUDY    63  50  63 SW8G15    30.07R
$$

IAZ055>058-069>071-079>083-090>094-230200-
   SOUTHWEST IOWA

CITY           SKY/WX    TMP DP  RH WIND       PRES   REMARKS
ATLANTIC *     MOCLDY    63  50  63 SE14G21   30.04F
AUDUBON *      CLEAR     61  46  59 SE7       30.06S
CLARINDA *     PTCLDY    64  50  59 SE10G18   30.09R
COUNCIL BLFS * LGT RAIN  64  63  94 NW7G16    30.06R
CRESTON *      CLEAR     57  48  72 SE10      30.10S
HARLAN  *      MOCLDY    64  52  63 SE14G20   30.07R
LAMONI         CLEAR     59  47  64 SE9       30.12S
RED OAK *      PTCLDY    64  52  63 SE8G14    30.05S
SHENANDOAH *     N/A     66  54  63 SE14G20   30.05S
$$

IAZ047>049-059>061-072>074-084-230200-
   CENTRAL IOWA

CITY           SKY/WX    TMP DP  RH WIND       PRES   REMARKS
AMES           MOCLDY    57  44  62 SE12      30.12R
ANKENY *       PTCLDY    59  46  63 SE9       30.12S
CHARITON *     CLOUDY    59  46  63 SE12      30.14R
DES MOINES     MOCLDY    60  46  59 SE13      30.12S
GRINNELL*      CLOUDY    55  41  58 SE9       30.16F
KNOXVILLE *    MOCLDY    57  43  58 SE10      30.13S
MARSHALLTOWN   CLOUDY    57  41  55 SE13      30.14R
PELLA *        MOCLDY    55  45  67 SE7       30.16S
PERRY *          N/A     59  48  67 SE10      30.08F
$$

IAZ004>006-015-016-023>025-035-036-230200-
   NORTH CENTRAL IOWA

CITY           SKY/WX    TMP DP  RH WIND       PRES   REMARKS
ALGONA *       CLEAR     57  46  67 S20G25    30.04S
CLARION *      CLEAR     55  45  67 SE15G22   30.08F
ESTHERVILLE    CLOUDY    58  46  64 S15G25    30.04R
FORT DODGE *   PTCLDY    57  45  62 SE13      30.06F
MASON CITY     CLOUDY    56  42  59 SE16G23   30.11S
FOREST CITY *  CLEAR     54  43  66 SE14      30.08S
IOWA FALLS *   CLOUDY    57  43  58 SE12      30.12S
$$

IAZ007>011-017>019-026>030-037>042-050>054-066-230200-
   NORTHEAST IOWA

CITY           SKY/WX    TMP DP  RH WIND       PRES   REMARKS
CEDAR RAPIDS   CLEAR     51  39  63 SE7       30.19R
CHARLES CITY * CLOUDY    55  39  54 SE15      30.14S
CLINTON *      CLEAR     46  36  66 SE7       30.26R
DECORAH *      CLOUDY    52  37  58 SE9       30.16S
DUBUQUE        CLEAR     45  36  70 SE8       30.21S
MONTICELLO *   CLEAR     46  39  76 SE7       30.20S
OELWEIN *      MOCLDY    50  39  66 SE8       30.18R
WATERLOO       MOCLDY    55  40  56 SE10      30.15S
$$

IAZ064-065-067-068-078-230200-
   EAST CENTRAL IOWA

CITY           SKY/WX    TMP DP  RH WIND       PRES   REMARKS
DAVENPORT      CLEAR     46  34  62 SE6       30.23R
IOWA CITY      CLEAR     48  39  71 SE3       30.21S
MT. PLEASANT * CLEAR     48  39  71 SE6       30.21R
MUSCATINE *    CLEAR     50  37  62 SE3       30.22S
QUAD CITIES    CLEAR     43  37  79 S3        30.23R
$$

IAZ062-063-075>077-085>089-095>099-230200-
   SOUTHEAST IOWA

CITY           SKY/WX    TMP DP  RH WIND       PRES   REMARKS
BURLINGTON     CLEAR     48  41  76 SE5       30.22R
FAIRFIELD *    CLEAR     48  39  71 SE8       30.19S
FORT MADISON * CLEAR     52  43  71 SE5       30.22S
KEOKUK *       CLEAR     52  43  71 SE5       30.21R
OSKALOOSA *      N/A     52  41  66 SE9       30.17F
CENTERVILLE *  CLEAR     52  45  76 SE7       30.18R
OTTUMWA        PTCLDY    52  41  66 SE10      30.17R
WASHINGTON *   CLEAR     48  39  71 SE6       30.20S
$$

ABBREVIATIONS USED IN REMARKS
   TC - TEMPERATURES IN CELSIUS
  WCI - WIND CHILL INDEX
   HX - HEAT INDEX
  VSB - VISIBILITY
$$




USA.gov is the U.S. government's official web portal to all federal, state and local government web resources and services.